Tegel Arpt/Berlin, Germany

9:39 PM CET on December 03, 2016 (GMT +0100)
Tegel

Weather History for EDDT - May, 2013

Change the Weather History Date:

Friday, May 24, 2013

  Actual Average Record
Temperature  
Mean Temperature 52 °F -  
Max Temperature 60 °F 67 °F 84 °F (2003)
Min Temperature 44 °F 49 °F 37 °F (1997)
Degree Days  
Heating Degree Days 13    
Growing Degree Days 2 (Base 50)    
Moisture  
Dew Point 41 °F    
Average Humidity 62    
Maximum Humidity 82    
Minimum Humidity 33    
Precipitation  
Precipitation 0.00 in - - ()
Sea Level Pressure  
Sea Level Pressure 29.80 in    
Wind  
Wind Speed 6 mph ()    
Max Wind Speed 14 mph    
Max Gust Speed -    
Visibility 9.0 miles    
Events Rain    
Averages and records for this station are not official NWS values.
T = Trace of Precipitation, MM = Missing Value Source: Averaged Metar Reports

Daily Weather History Graph

Daily Weather History Graph

Search for Another Location

Airport or City:

Trip Planner

Search our weather history database for the weather conditions in past years. The results will help you decide how hot, cold, wet, or windy it might be!

Date:

Astronomy

May. 24, 2013 Rise Set
Actual Time 4:57 AM CEST 9:10 PM CEST
Civil Twilight 4:12 AM CEST 9:55 PM CEST
Nautical Twilight 3:05 AM CEST 11:03 PM CEST
Astronomical Twilight 1:36 AM CEST 12:31 AM CEST
Moon 8:27 PM CEST (5/24) 4:25 AM CEST (5/24)
Length of Visible Light 17h 43m
Length of Day
16h 12m
Waxing Gibbous, 99% of the Moon is Illuminated
May 24
Waxing Gibbous
May 25
Full
May 31
Last Quarter
Jun 8
New
Jun 16
First Quarter

Hourly Weather History & Observations

Time (CEST) Temp. Windchill Dew Point Humidity Pressure Visibility Wind Dir Wind Speed Gust Speed Precip Events Conditions
12:00 AM 49 °F - 34 °F 45% 29.75 in 28 mi East 4.5 mph - -   Clear
12:20 AM 48.2 °F - 35.6 °F 62% 29.74 in - ENE 9.2 mph - N/A   Clear
12:50 AM 48.2 °F - 35.6 °F 62% 29.74 in - ENE 8.1 mph - N/A   Clear
1:00 AM 47 °F - 36 °F 54% 29.76 in 25 mi East 4.5 mph - -   Scattered Clouds
1:20 AM 46.4 °F 43.5 °F 35.6 °F 66% 29.74 in - ENE 5.8 mph - N/A   Clear
1:50 AM 46.4 °F 45.2 °F 37.4 °F 71% 29.74 in - NE 3.5 mph - N/A   Clear
2:00 AM 47 °F - 36 °F 57% 29.76 in 25 mi ENE 4.5 mph - -   Partly Cloudy
2:20 AM 46.4 °F 45.2 °F 37.4 °F 71% 29.74 in - Variable 3.5 mph - N/A   Clear
2:50 AM 48.2 °F - 37.4 °F 66% 29.74 in - ENE 5.8 mph - N/A   Clear
3:00 AM 48 °F - 37 °F 56% 29.77 in 25 mi East 6.7 mph - -   Mostly Cloudy
3:20 AM 46.4 °F 42.9 °F 37.4 °F 71% 29.77 in - NE 6.9 mph - N/A   Clear
3:50 AM 46.4 °F 42.9 °F 37.4 °F 71% 29.74 in - East 6.9 mph - N/A   Clear
4:20 AM 44.6 °F 40.2 °F 37.4 °F 76% 29.77 in - ENE 8.1 mph - N/A   Clear
4:50 AM 44.6 °F 40.2 °F 37.4 °F 76% 29.74 in - ENE 8.1 mph - N/A   Clear
5:00 AM 45 °F - 38 °F 67% 29.77 in 19 mi East 6.7 mph - -   Partly Cloudy
5:20 AM 44.6 °F 40.7 °F 39.2 °F 81% 29.77 in - ENE 6.9 mph - N/A   Clear
5:50 AM 44.6 °F 40.7 °F 39.2 °F 81% 29.77 in - ENE 6.9 mph - N/A   Clear
6:00 AM 45 °F - 39 °F 72% 29.77 in 22 mi East 6.7 mph - -   Scattered Clouds
6:20 AM 46.4 °F 43.5 °F 39.2 °F 76% 29.77 in - ENE 5.8 mph - N/A   Clear
6:50 AM 46.4 °F 45.2 °F 39.2 °F 76% 29.77 in - NE 3.5 mph - N/A   Clear
7:00 AM 47 °F - 39 °F 66% 29.78 in 25 mi East 2.2 mph - -   Scattered Clouds
7:20 AM 50.0 °F - 39.2 °F 66% 29.77 in - NE 4.6 mph - N/A   Clear
7:50 AM 50.0 °F - 41.0 °F 71% 29.77 in - Variable 2.3 mph - N/A   Clear
8:00 AM 51 °F - 41 °F 58% 29.79 in 19 mi South 2.2 mph - -   Scattered Clouds
8:20 AM 51.8 °F - 41.0 °F 67% 29.77 in - Variable 2.3 mph - N/A   Clear
8:50 AM 53.6 °F - 39.2 °F 58% 29.77 in - Variable 3.5 mph - N/A   Clear
9:00 AM 53 °F - 40 °F 50% 29.79 in 22 mi East 2.2 mph - -   Mostly Cloudy
9:20 AM 53.6 °F - 39.2 °F 58% 29.80 in - Variable 3.5 mph - N/A   Clear
9:50 AM 53.6 °F - 37.4 °F 54% 29.80 in 6.2 mi SW 4.6 mph - N/A   Mostly Cloudy
10:00 AM 54 °F - 38 °F 43% 29.81 in 22 mi South 2.2 mph - -   Mostly Cloudy
10:20 AM 53.6 °F - 41.0 °F 62% 29.80 in 6.2 mi WSW 6.9 mph - N/A   Mostly Cloudy
10:50 AM 53.6 °F - 42.8 °F 67% 29.83 in 6.2 mi WNW 9.2 mph - N/A   Mostly Cloudy
11:00 AM 54 °F - 42 °F 53% 29.83 in 22 mi WNW 8.9 mph - -   Mostly Cloudy
11:20 AM 53.6 °F - 42.8 °F 67% 29.83 in 6.2 mi WNW 6.9 mph - N/A   Mostly Cloudy
11:50 AM 53.6 °F - 42.8 °F 67% 29.83 in 6.2 mi NW 5.8 mph - N/A   Mostly Cloudy
12:00 PM 54 °F - 43 °F 56% 29.83 in 22 mi NW 6.7 mph - -   Mostly Cloudy
12:20 PM 55.4 °F - 42.8 °F 63% 29.83 in 6.2 mi NW 4.6 mph - N/A   Mostly Cloudy
12:50 PM 57.2 °F - 44.6 °F 63% 29.83 in 6.2 mi West 6.9 mph - N/A   Mostly Cloudy
1:00 PM 57 °F - 44 °F 50% 29.83 in 22 mi West 6.7 mph - -   Mostly Cloudy
1:20 PM 57.2 °F - 37.4 °F 48% 29.83 in 6.2 mi West 5.8 mph - N/A   Mostly Cloudy
1:50 PM 57.2 °F - 35.6 °F 44% 29.83 in 6.2 mi Variable 3.5 mph - N/A   Mostly Cloudy
2:00 PM 57 °F - 36 °F 33% 29.83 in 22 mi WSW 4.5 mph - -   Mostly Cloudy
2:20 PM 57.2 °F - 37.4 °F 48% 29.83 in 6.2 mi NW 1.2 mph - N/A   Mostly Cloudy
2:50 PM 57.2 °F - 39.2 °F 51% 29.83 in 6.2 mi WNW 5.8 mph - N/A   Mostly Cloudy
3:00 PM 58 °F - 39 °F 38% 29.83 in 22 mi WNW 6.7 mph - -   Mostly Cloudy
3:20 PM 59.0 °F - 42.8 °F 55% 29.83 in 6.2 mi WNW 8.1 mph - N/A   Mostly Cloudy
3:50 PM 59.0 °F - 42.8 °F 55% 29.83 in 6.2 mi West 9.2 mph - N/A   Mostly Cloudy
4:00 PM 59 °F - 42 °F 41% 29.83 in 22 mi West 8.9 mph - -   Mostly Cloudy
4:20 PM 57.2 °F - 41.0 °F 55% 29.83 in 6.2 mi WNW 8.1 mph - N/A   Mostly Cloudy
4:50 PM 57.2 °F - 42.8 °F 59% 29.83 in 6.2 mi WNW 8.1 mph - N/A   Mostly Cloudy
5:00 PM 58 °F - 43 °F 46% 29.83 in 25 mi WNW 8.9 mph - -   Mostly Cloudy
5:20 PM 57.2 °F - 44.6 °F 63% 29.83 in 6.2 mi West 13.8 mph - N/A   Mostly Cloudy
5:50 PM 55.4 °F - 44.6 °F 67% 29.83 in 6.2 mi West 11.5 mph - N/A   Mostly Cloudy
6:20 PM 55.4 °F - 44.6 °F 67% 29.83 in 6.2 mi West 9.2 mph - N/A   Mostly Cloudy
6:50 PM 55.4 °F - 44.6 °F 67% 29.83 in - WNW 9.2 mph - N/A   Clear
7:00 PM 55 °F - 44 °F 56% 29.84 in 19 mi WNW 8.9 mph - -   Mostly Cloudy
7:20 PM 55.4 °F - 42.8 °F 63% 29.83 in - WNW 9.2 mph - N/A   Clear
7:50 PM 55.4 °F - 42.8 °F 63% 29.83 in - WNW 9.2 mph - N/A   Clear
8:00 PM 55 °F - 43 °F 53% 29.84 in 19 mi WNW 8.9 mph - -   Scattered Clouds
8:20 PM 53.6 °F - 42.8 °F 67% 29.83 in - WNW 8.1 mph - N/A   Clear
8:50 PM 53.6 °F - 44.6 °F 72% 29.83 in - WNW 8.1 mph - N/A   Clear
9:00 PM 54 °F - 44 °F 60% 29.85 in 19 mi WNW 6.7 mph - -   Scattered Clouds
9:20 PM 53.6 °F - 44.6 °F 72% 29.83 in - WNW 9.2 mph - N/A   Clear
9:50 PM 51.8 °F - 44.6 °F 76% 29.86 in - WNW 8.1 mph - N/A   Clear
10:00 PM 53 °F - 44 °F 64% 29.86 in 22 mi WNW 6.7 mph - - Rain Light Rain
10:20 PM 51.8 °F - 44.6 °F 76% 29.86 in - WNW 8.1 mph - N/A   Clear
10:50 PM 51.8 °F - 44.6 °F 76% 29.83 in - WNW 6.9 mph - N/A   Clear
11:00 PM 51 °F - 44 °F 71% 29.85 in 25 mi WNW 6.7 mph - -   Partly Cloudy
11:20 PM 50.0 °F - 44.6 °F 82% 29.83 in - WNW 5.8 mph - N/A   Clear
11:50 PM 50.0 °F - 44.6 °F 82% 29.83 in - WNW 4.6 mph - N/A   Clear